STARLINK-1573, 46061

Orbit data source: Space-Track

STARLINK-1573, 46061 is a payload satellite owned by SpaceX/Seattle (US) in LEO that was launched on Fri, 07 Aug 2020 UTC via an FALCON 9 launch vehicle from the Air Force Eastern Test Range (AFETR). Payloads include a variety of satellites, spacecraft, and rockets equipped with specific instruments for various scientific and technological missions. These include communications satellites like Starlink; space stations such as the ISS; scientific satellites like the Hubble; Earth observation satellites from companies like Planet Labs, Umbra, and HawkEye 360; GPS; miniature CubeSats for education and research; and military/defense satellites.

Loading next visibility...
STARLINK-1573 details
Identifier
46061, 2020-055AL
Orbit
LEO
Last TLE update9 hours ago
Origin
Flag of USSpaceX/Seattle (US)
ManufacturerSpaceX/Seattle
MissionOperational Commercial Communications
Bus & MotorSTARLINK, Unknown motor
Mass260 kg wet, ~248 kg dry
Launch date (UTC)
2020-08-07 (4 years ago)
Launch vehicle
FALCON 9
Launch site
Air Force Eastern Test Range (AFETR)
Object type
Payload
Rocket body
Debris
Shape & HBRBox + 1 Pan, 8.86 m
Radar Cross Section13.562 m², Large (>1 m²)

Expand to show TLE details & history

TLE from 9 hours ago
0 STARLINK-1573
1 46061U 20055AL  24361.02934712  .00016535  00000-0  11255-2 0  9999
2 46061  53.0550 285.8802 0001443  88.7478 271.3677 15.06427626242385
Epoch: 2024-12-26T00:42Z
Definitive object data (Epoch: 2024-12-26T00:42:15.591Z)
Latitude0.00005°
Longitude-179.69933°
Altitude547.982 km
Speed7.589 km/s
True Right ascension19h 03m 31s
True Declination0° 00' 00"
Sunlit
Object was in daylight at TLE epoch
Visualization TLE readout
Latitude-52.77791°
Longitude98.6553°
Altitude566.419 km
Speed7.577 km/s
Apparent Right ascension17h 52m 23s
Apparent Declination-62° 33' 55"
Sunlit
Object is in daylight
Visualization observer readout
Local Sidereal Time09:14:16
Azimuth144.19° SSE
Elevation-52.599°
Doppler factor1
Orbital elements
Apogee altitude548.397 km
Perigee altitude546.398 km
Semi-major axis6,925.535 km
Eccentricity0.0001443
Inclination53.055°
RAAN285.8802°
Arg. of periapsis88.7478°
True anomaly271.35117°
Mean anomaly271.3677°
Eccentric anomaly271.35943°
Mean motion3.76585 °/min
BSTAR0.0011255
Orbital period95.6 mins
Loading maneuver chart data...
Loading historical data...
Loading historical data...
Loading historical data...
Loading historical data...
Loading historical data...
Loading historical data...
Loading historical data...

STARLINK-1573 Visibility forecast

Observer location: undefined°, undefined

Span
Click to sort rows by Start time (UTC) header in descending order
Start Az.
Max El. time (UTC)
Max El. Az.
Max El.
End time (UTC)
End Az.
7 mins2024-12-26 21:34:11.325Z212.333° SW2024-12-26 21:37:11.325Z157.693° S39.474°2024-12-26 21:41:11.325Z58.256° ENE
5 mins2024-12-26 23:15:11.325Z290.158° WNW2024-12-26 23:17:11.325Z332.37° NNW24.164°2024-12-26 23:20:11.325Z27.91° NE
4 mins2024-12-27 02:37:11.325Z349.097° N2024-12-27 02:39:11.325Z24.442° NE16.372°2024-12-27 02:41:11.325Z55.478° ENE
6 mins2024-12-27 04:16:11.325Z320.89° NNW2024-12-27 04:19:11.325Z51.055° ENE40.059°2024-12-27 04:22:11.325Z113.501° SE
|